| time (UTC) | temp F | wind direction | speed knots | gust knots | rain 1hr in | rain 24hr in | rain mn in | humidity % | barometer mb |
| 20260504081541 | 41 | 102 | 7.8 | 11.3 | 0.00 | 0.00 | 0.00 | 86 | 1009.7 |
| 20260504060104 | 40 | 94 | 1.7 | 7.8 | 0.00 | 0.00 | 0.00 | 74 | 1010.1 |
| 20260504044556 | 40 | 117 | 4.3 | 9.6 | 0.00 | 0.00 | 0.00 | 62 | 1010.5 |
| 20260504043058 | 41 | 92 | 2.6 | 12.2 | 0.00 | 0.00 | 0.00 | 60 | 1010.7 |
| 20260504041554 | 41 | 99 | 0.9 | 7.0 | 0.00 | 0.00 | 0.00 | 59 | 1010.8 |
| 20260504040022 | 40 | 47 | 1.7 | 7.8 | 0.00 | 0.00 | 0.00 | 59 | 1010.9 |
| 20260504034522 | 40 | 95 | 0.9 | 1.7 | 0.00 | 0.00 | 0.00 | 56 | 1010.7 |
| 20260504033019 | 39 | 120 | 1.7 | 4.3 | 0.00 | 0.00 | 0.00 | 57 | 1010.7 |
| 20260504031519 | 39 | 116 | 0.9 | 2.6 | 0.00 | 0.00 | 0.00 | 57 | 1010.7 |
| 20260504030020 | 39 | 129 | 0.0 | 2.6 | 0.00 | 0.00 | 0.00 | 57 | 1010.7 |
| 20260504024518 | 39 | 148 | 1.7 | 3.5 | 0.00 | 0.00 | 0.00 | 58 | 1010.8 |
| 20260504023015 | 38 | 117 | 1.7 | 6.1 | 0.00 | 0.00 | 0.00 | 59 | 1010.8 |
| 20260504021515 | 39 | 129 | 0.9 | 2.6 | 0.00 | 0.00 | 0.00 | 58 | 1010.9 |
| 20260504020021 | 39 | 117 | 0.9 | 2.6 | 0.00 | 0.00 | 0.00 | 59 | 1010.9 |
| 20260504014514 | 39 | 86 | 1.7 | 4.3 | 0.00 | 0.00 | 0.00 | 60 | 1010.9 |
| 20260504013056 | 39 | 235 | 0.0 | 3.5 | 0.00 | 0.00 | 0.00 | 59 | 1010.8 |
| 20260504011543 | 39 | 234 | 0.9 | 3.5 | 0.00 | 0.00 | 0.00 | 59 | 1010.7 |
| 20260504010042 | 39 | 221 | 0.9 | 5.2 | 0.00 | 0.00 | 0.00 | 60 | 1010.6 |
| 20260504004540 | 39 | 167 | 0.9 | 2.6 | 0.00 | 0.00 | 0.00 | 62 | 1010.4 |
| 20260504003039 | 39 | 137 | 0.0 | 2.6 | 0.00 | 0.00 | 0.00 | 61 | 1010.4 |
| 20260504001543 | 40 | 138 | 0.0 | 4.3 | 0.00 | 0.00 | 0.00 | 61 | 1010.3 |
| 20260504000037 | 41 | 90 | 1.7 | 3.5 | 0.00 | 0.00 | 0.00 | 59 | 1010.1 |
| 20260503234536 | 42 | 114 | 1.7 | 6.1 | 0.00 | 0.00 | 0.00 | 58 | 1010.2 |
| 20260503233036 | 42 | 73 | 1.7 | 6.1 | 0.00 | 0.00 | 0.00 | 58 | 1010.1 |
| 20260503231535 | 43 | 88 | 3.5 | 9.6 | 0.00 | 0.00 | 0.00 | 57 | 1009.9 |
| 20260503230013 | 42 | 67 | 0.9 | 6.1 | 0.00 | 0.00 | 0.00 | 58 | 1009.9 |
| 20260503224504 | 42 | 97 | 4.3 | 8.7 | 0.00 | 0.00 | 0.00 | 57 | 1009.9 |
| 20260503223035 | 43 | 78 | 2.6 | 8.7 | 0.00 | 0.00 | 0.00 | 58 | 1009.9 |
| 20260503221533 | 43 | 74 | 2.6 | 11.3 | 0.00 | 0.00 | 0.00 | 55 | 1010.0 |
| 20260503220029 | 43 | 98 | 1.7 | 8.7 | 0.00 | 0.00 | 0.00 | 58 | 1009.8 |
| 20260503214629 | 44 | 54 | 6.1 | 10.4 | 0.00 | 0.00 | 0.00 | 57 | 1009.8 |
| 20260503213027 | 43 | 98 | 5.2 | 10.4 | 0.00 | 0.00 | 0.00 | 58 | 1009.8 |
| 20260503211526 | 42 | 77 | 1.7 | 13.0 | 0.00 | 0.00 | 0.00 | 60 | 1009.8 |
| 20260503210024 | 42 | 85 | 3.5 | 10.4 | 0.00 | 0.00 | 0.00 | 61 | 1009.8 |
| 20260503204524 | 42 | 89 | 5.2 | 13.0 | 0.00 | 0.00 | 0.00 | 60 | 1009.8 |
| 20260503203032 | 42 | 77 | 7.0 | 16.5 | 0.00 | 0.00 | 0.00 | 61 | 1009.8 |
| 20260503201521 | 41 | 165 | 4.3 | 9.6 | 0.00 | 0.00 | 0.00 | 62 | 1009.7 |
| 20260503200026 | 41 | 96 | 6.1 | 13.0 | 0.00 | 0.00 | 0.00 | 63 | 1009.8 |
| 20260503200020 | 41 | 86 | 6.1 | 13.0 | 0.00 | 0.00 | 0.00 | 63 | 1009.8 |
| 20260503194549 | 40 | 117 | 6.1 | 13.9 | 0.00 | 0.00 | 0.00 | 63 | 1009.9 |
| 20260503193051 | 41 | 86 | 5.2 | 13.0 | 0.00 | 0.00 | 0.00 | 61 | 1010.0 |
| 20260503191606 | 40 | 67 | 7.8 | 13.9 | 0.00 | 0.00 | 0.00 | 64 | 1009.9 |
| 20260503190045 | 41 | 84 | 5.2 | 14.8 | 0.00 | 0.00 | 0.00 | 65 | 1010.2 |
| 20260503184544 | 41 | 59 | 7.8 | 15.6 | 0.00 | 0.00 | 0.00 | 60 | 1010.1 |
| 20260503183044 | 41 | 154 | 5.2 | 14.8 | 0.00 | 0.00 | 0.00 | 57 | 1010.1 |
| 20260503181548 | 40 | 47 | 5.2 | 12.2 | 0.00 | 0.00 | 0.00 | 59 | 1010.1 |
| 20260503180042 | 41 | 123 | 6.1 | 11.3 | 0.00 | 0.00 | 0.00 | 60 | 1010.1 |
| 20260503174546 | 40 | 107 | 1.7 | 10.4 | 0.00 | 0.00 | 0.00 | 61 | 1010.2 |
| 20260503173040 | 40 | 212 | 5.2 | 13.9 | 0.00 | 0.00 | 0.00 | 59 | 1010.1 |
| 20260503171509 | 40 | 67 | 3.5 | 11.3 | 0.00 | 0.00 | 0.00 | 59 | 1010.2 |
| 20260503160108 | 41 | 68 | 5.2 | 12.2 | 0.00 | 0.00 | 0.00 | 56 | 1010.4 |